Regional Weather Roundup
Issued by NWS

Home | Current Version | Previous Version | Text Only | Print | Product List | Glossary On
Versions: 1 2 3 4 5 6 7 8 9 10 11 12 13 14 15 16 17 18 19 20 21 22 23 24 25 26 27 28 29 30 31 32 33 34 35 36 37 38 39 40 41 42 43 44 45 46 47 48 49 50
000
ASUS44 KMEG 230210
RWRTN
TENNESSEE HOURLY STATE WEATHER ROUNDUP
NATIONAL WEATHER SERVICE MEMPHIS TN
900 PM CDT MON MAY 22 2017

TNZ002-004-019-021-049-052-054-088>092-230300-
WEST TENNESSEE

CITY           SKY/WX    TMP DP  RH WIND       PRES   REMARKS
MEMPHIS INTL   CLOUDY    68  59  73 NW5       29.95S
NWS MEMPHIS      N/A     67 N/A N/A MISG        N/A
JACKSON        CLOUDY    68  60  75 CALM      29.95F
DYERSBURG      CLOUDY    67  59  75 CALM      29.97S
COVINGTON      CLOUDY    66  61  82 CALM      29.96R
UNION CITY       N/A     70  54  56 CALM      29.96R
BOLIVAR        CLOUDY    66  61  82 CALM      29.95R HAZE
PARIS          CLEAR     64  59  82 CALM      29.96S
HUNTINGDON     PTCLDY    66  59  77 CALM      29.96S
SELMER         CLOUDY    64  63  94 CALM      29.94S
SAVANNAH       MOCLDY    66  63  88 CALM      29.92F
$$

TNZ008-025-027-028-033-062-065-066-230300-
NORTH MIDDLE TENNESSEE

CITY           SKY/WX    TMP DP  RH WIND       PRES   REMARKS
NASHVILLE      CLOUDY    68  54  60 NE6       29.98R
PORTLAND       CLEAR     64  57  77 CALM      29.98S
CLARKSVILLE    CLOUDY    66  52  60 CALM      29.98S
SMYRNA         CLOUDY    68  56  65 NE6       29.97S
COOKEVILLE     PTCLDY    64  59  82 CALM      29.95F
GALLATIN       CLEAR     66  55  68 N5        30.00R
CROSSVILLE     MOCLDY    63  55  75 NE6       30.00S
$$

TNZ061-075-076-078-094-096-097-230300-
SOUTH MIDDLE TENNESSEE

CITY           SKY/WX    TMP DP  RH WIND       PRES   REMARKS
FAYETTEVILLE   CLOUDY    68  63  83 NE6       29.95S
TULLAHOMA      CLEAR     64  59  82 W3        29.98R
WINCHESTER     CLEAR     68  61  77 CALM      29.96R
MCMINNVILLE    CLEAR     64  59  82 NE5       29.96F
COLUMBIA       CLEAR     68  55  64 CALM      29.94S
SHELBYVILLE    PTCLDY    66  59  77 N6        29.96S
$$

TNZ017-018-042-046-047-230300-
NORTHEAST TENNESSEE

CITY           SKY/WX    TMP DP  RH WIND       PRES   REMARKS
TRI CITIES     MOCLDY    66  60  81 CALM      29.99F
ELIZABETHTON   DRIZZLE   63  61  94 CALM      29.99F
$$

TNZ012-013-036-069-073-074-230300-
CENTRAL EAST TENNESSEE

CITY           SKY/WX    TMP DP  RH WIND       PRES   REMARKS
KNOXVILLE      CLOUDY    68  62  81 NE5       29.94F
OAK RIDGE      MOCLDY    67  56  67 CALM      29.97F
DOWNTOWN KNOXV CLEAR     64  64 100 CALM      29.95F
GATLINBURG     CLEAR     64  63  94 CALM      29.95F
MORRISTOWN     MOCLDY    66  63  88 CALM      29.96F
JACKSBORO      CLEAR     61  55  82 CALM      30.00F
$$

TNZ083-085-099-230300-
SOUTHEAST TENNESSEE

CITY           SKY/WX    TMP DP  RH WIND       PRES   REMARKS
CHATTANOOGA    LGT RAIN  73  63  70 CALM      29.94F
$$

SKY/WX REPORTED AS FAIR MEANS FEW OR NO CLOUDS BELOW
12 THOUSAND FEET.




USA.gov is the U.S. government's official web portal to all federal, state and local government web resources and services.